User: anonymous   Login
Location: Unspecified
(0.0000°N, 0.0000°E)
Time: 10:40:17
(UTC+00:00)
Language:

XW-2F - Orbit

View from above orbital plane
View from above orbital plane
View from above satellite
View from above satellite

Ground track
Ground track

The orbit data is extracted from the following two-line orbital elements,

1 40910U 15049M   20192.10218668  .00000601  00000-0  32870-4 0  9990
2 40910  97.4665 195.4352 0013086 284.2725 149.2901 15.17982150265772
Epoch (UTC): 10 July 2020 02:27:08
Eccentricity: 0.0013086
inclination: 97.4665°
perigee height: 503 km
apogee height: 521 km
right ascension of ascending node: 195.4352°
argument of perigee: 284.2725°
revolutions per day: 15.17982150
mean anomaly at epoch: 149.2901°
orbit number at epoch: 26577

The dashed part of the orbit path shows where the satellite is in the earth's shadow,  

DLR